EW7868 Weather Reports


Display with metric or nautical units.
time (UTC)temp
F
wind
direction
speed
MPH
gust
MPH
rain 1hr
in
rain 24hr
in
rain mn
in
humidity
%
barometer
mb
20260906185610 83 97 0.0 5.0 0.00 0.00 0.00 55 1016.6
20260906185109 83 86 3.0 11.0 0.00 0.00 0.00 56 1017.1
20260906184604 83 93 3.0 5.0 0.00 0.00 0.00 56 1017.1
20260906184100 83 90 0.0 6.0 0.00 0.00 0.00 55 1017.1
20260906183556 83 90 3.0 9.0 0.00 0.00 0.00 55 1017.2
20260906183052 82 75 3.0 9.0 0.00 0.00 0.00 56 1017.3
20260906182546 82 95 2.0 7.0 0.00 0.00 0.00 57 1017.1
20260906182042 82 93 4.0 12.0 0.00 0.00 0.00 56 1017.1
20260906181538 82 87 7.0 9.0 0.00 0.00 0.00 57 1016.9
20260906181033 82 90 0.0 7.0 0.00 0.00 0.00 59 1017.0
20260906180528 82 95 2.0 3.0 0.00 0.00 0.00 61 1017.2
20260906180027 81 123 2.0 5.0 0.00 0.00 0.00 62 1017.2
20260906175526 81 90 1.0 5.0 0.00 0.00 0.00 61 1017.2
20260906175026 82 199 3.0 13.0 0.00 0.00 0.00 60 1017.5
20260906174524 82 90 0.0 5.0 0.00 0.00 0.00 61 1017.4
20260906174020 82 82 0.0 7.0 0.00 0.00 0.00 61 1017.5
20260906173515 81 106 0.0 5.0 0.00 0.00 0.00 60 1017.4
20260906173011 82 95 2.0 10.0 0.00 0.00 0.00 61 1017.8
20260906172505 82 63 0.0 7.0 0.00 0.00 0.00 63 1017.9
20260906172000 80 99 5.0 11.0 0.00 0.00 0.00 63 1017.7
20260906171455 81 87 0.0 9.0 0.00 0.00 0.00 63 1017.7
20260906170950 80 103 0.0 4.0 0.00 0.00 0.00 63 1017.7
20260906170446 81 86 5.0 7.0 0.00 0.00 0.00 66 1017.6
20260906165943 81 97 4.0 7.0 0.00 0.00 0.00 65 1017.6
20260906165442 82 80 4.0 5.0 0.00 0.00 0.00 65 1017.4
20260906164938 81 86 3.0 5.0 0.00 0.00 0.00 69 1017.8
20260906164436 80 90 3.0 6.0 0.00 0.00 0.00 70 1017.8
20260906163933 80 192 4.0 6.0 0.00 0.00 0.00 72 1017.8
20260906163428 79 249 1.0 6.0 0.00 0.00 0.00 74 1017.9
20260906162927 80 106 1.0 8.0 0.00 0.00 0.00 72 1017.9
20260906162425 81 213 0.0 7.0 0.00 0.00 0.00 69 1017.6
20260906161921 79 90 3.0 9.0 0.00 0.00 0.00 69 1017.8
20260906161420 78 86 3.0 9.0 0.00 0.00 0.00 74 1017.8
20260906160919 79 86 5.0 5.0 0.00 0.00 0.00 73 1017.7
20260906160413 79 83 6.0 6.0 0.00 0.00 0.00 74 1017.7
20260906155911 79 69 1.0 3.0 0.00 0.00 0.00 76 1017.6
20260906155405 78 90 3.0 6.0 0.00 0.00 0.00 75 1017.6
20260906154901 80 77 2.0 6.0 0.00 0.00 0.00 74 1017.7
20260906154355 79 234 0.0 5.0 0.00 0.00 0.00 75 1017.5
20260906153854 79 95 6.0 7.0 0.00 0.00 0.00 74 1017.5
20260906153353 79 90 3.0 5.0 0.00 0.00 0.00 74 1017.5
20260906152848 79 101 2.0 7.0 0.00 0.00 0.00 75 1017.5
20260906152343 78 77 0.0 6.0 0.00 0.00 0.00 76 1017.5
20260906151842 78 112 5.0 7.0 0.00 0.00 0.00 76 1017.6
20260906151338 77 90 3.0 5.0 0.00 0.00 0.00 78 1017.8
20260906150834 77 87 3.0 7.0 0.00 0.00 0.00 77 1017.7
20260906150329 77 80 2.0 5.0 0.00 0.00 0.00 78 1017.7
20260906145828 77 90 2.0 7.0 0.00 0.00 0.00 78 1017.7
20260906145327 78 103 4.0 6.0 0.00 0.00 0.00 76 1017.7
20260906144822 78 90 0.0 3.0 0.00 0.00 0.00 79 1017.7
20260906144317 78 103 0.0 4.0 0.00 0.00 0.00 79 1017.4
20260906143816 77 90 0.0 1.0 0.00 0.00 0.00 82 1017.5
20260906143313 77 96 2.0 4.0 0.00 0.00 0.00 83 1017.6
20260906142808 77 84 2.0 3.0 0.00 0.00 0.00 84 1017.3
20260906142306 76 90 2.0 3.0 0.00 0.00 0.00 85 1017.6
20260906141802 75 90 1.0 3.0 0.00 0.00 0.00 85 1017.4
20260906141257 75 204 0.0 3.0 0.00 0.00 0.00 85 1017.3
20260906140756 76 294 1.0 3.0 0.00 0.00 0.00 82 1017.5
20260906140251 76 206 1.0 3.0 0.00 0.00 0.00 83 1017.3
20260906135749 76 87 4.0 5.0 0.00 0.00 0.00 84 1017.3
20260906135244 75 106 2.0 4.0 0.00 0.00 0.00 85 1017.4
20260906134740 75 78 0.0 3.0 0.00 0.00 0.00 86 1017.5
20260906134235 75 121 2.0 4.0 0.00 0.00 0.00 88 1017.6
20260906133730 74 85 0.0 4.0 0.00 0.00 0.00 88 1017.5
20260906133226 74 77 0.0 6.0 0.00 0.00 0.00 90 1017.4
20260906132721 74 90 4.0 5.0 0.00 0.00 0.00 90 1017.4
20260906132216 73 96 0.0 2.0 0.00 0.00 0.00 93 1017.2
20260906131712 73 77 0.0 2.0 0.00 0.00 0.00 95 1017.4
20260906131207 72 102 2.0 3.0 0.00 0.00 0.00 96 1017.2
20260906130702 71 105 0.0 1.0 0.00 0.00 0.00 98 1017.5
20260906130157 70 81 0.0 1.0 0.00 0.00 0.00 98 1017.2
20260906125655 70 90 0.0 2.0 0.00 0.00 0.00 98 1017.4
20260906125154 70 90 0.0 0.0 0.00 0.00 0.00 98 1017.6
20260906124649 69 90 0.0 1.0 0.00 0.00 0.00 99 1017.2
20260906124144 69 99 0.0 2.0 0.00 0.00 0.00 99 1017.1
20260906123643 69 90 0.0 1.0 0.00 0.00 0.00 99 1017.2
20260906123139 69 97 0.0 2.0 0.00 0.00 0.00 99 1017.2
20260906122638 69 81 0.0 1.0 0.00 0.00 0.00 99 1017.0
20260906122134 69 83 0.0 1.0 0.00 0.00 0.00 99 1017.2
20260906121630 69 90 0.0 2.0 0.00 0.00 0.00 99 1017.0
20260906121126 69 63 0.0 2.0 0.00 0.00 0.00 99 1016.7
20260906120621 69 98 0.0 1.0 0.00 0.00 0.00 99 1016.8
20260906120119 69 90 0.0 0.0 0.00 0.00 0.00 99 1016.7
20260906115619 68 74 0.0 0.0 0.00 0.00 0.00 99 1016.8
20260906115115 68 90 0.0 0.0 0.00 0.00 0.00 99 1016.6
20260906114614 68 96 1.0 2.0 0.00 0.00 0.00 99 1016.4
20260906114109 68 96 0.0 1.0 0.00 0.00 0.00 99 1016.2
20260906113608 68 84 2.0 2.0 0.00 0.00 0.00 99 1016.2
20260906113104 68 90 2.0 3.0 0.00 0.00 0.00 99 1016.4
20260906112603 68 66 0.0 1.0 0.00 0.00 0.00 99 1016.4
20260906112100 68 90 0.0 1.0 0.00 0.00 0.00 99 1016.1
20260906111559 68 90 0.0 1.0 0.00 0.00 0.00 99 1015.9
20260906111055 68 90 0.0 0.0 0.00 0.00 0.00 99 1015.8
20260906110554 68 90 0.0 1.0 0.00 0.00 0.00 99 1015.9
20260906110054 68 106 0.0 1.0 0.00 0.00 0.00 99 1015.8
20260906105549 69 90 0.0 2.0 0.00 0.00 0.00 99 1015.8
20260906105045 68 114 0.0 1.0 0.00 0.00 0.00 99 1015.8
20260906104543 69 106 0.0 2.0 0.00 0.00 0.00 99 1015.6
20260906104038 69 109 0.0 2.0 0.00 0.00 0.00 99 1015.4
20260906103536 69 90 0.0 1.0 0.00 0.00 0.00 99 1015.7
20260906103032 69 90 0.0 2.0 0.00 0.00 0.00 99 1015.3
20260906102531 69 90 0.0 0.0 0.00 0.00 0.00 99 1015.7
20260906102027 69 105 0.0 2.0 0.00 0.00 0.00 99 1015.4
20260906101521 69 82 0.0 0.0 0.00 0.00 0.00 99 1015.4
20260906101016 69 90 0.0 0.0 0.00 0.00 0.00 98 1015.4
20260906100512 69 83 0.0 1.0 0.00 0.00 0.00 98 1015.4
20260906100006 69 90 0.0 1.0 0.00 0.00 0.00 98 1015.4
20260906095501 69 111 0.0 0.0 0.00 0.00 0.00 98 1015.2
20260906094956 70 99 0.0 2.0 0.00 0.00 0.00 98 1015.1
20260906094455 69 90 2.0 2.0 0.00 0.00 0.00 97 1015.1
20260906093951 70 106 0.0 1.0 0.00 0.00 0.00 97 1015.2
20260906093447 70 78 0.0 2.0 0.00 0.00 0.00 97 1015.1
20260906092942 70 97 0.0 0.0 0.00 0.00 0.00 97 1015.2
20260906092442 70 74 0.0 2.0 0.00 0.00 0.00 96 1014.8
20260906091937 70 75 0.0 1.0 0.00 0.00 0.00 96 1015.0
20260906091432 71 90 0.0 2.0 0.00 0.00 0.00 96 1015.1
20260906090929 71 74 1.0 1.0 0.00 0.00 0.00 95 1015.0
20260906090424 71 114 0.0 2.0 0.00 0.00 0.00 95 1015.0
20260906085924 71 81 0.0 0.0 0.00 0.00 0.00 95 1014.9
20260906085418 71 99 0.0 2.0 0.00 0.00 0.00 94 1014.9
20260906084917 71 90 0.0 2.0 0.00 0.00 0.00 94 1015.0
20260906084412 71 96 1.0 2.0 0.00 0.00 0.00 94 1015.0
20260906083911 71 107 2.0 3.0 0.00 0.00 0.00 94 1015.1
20260906083407 71 98 1.0 4.0 0.00 0.00 0.00 93 1014.9
20260906082906 72 90 1.0 5.0 0.00 0.00 0.00 94 1015.0
20260906082401 71 98 0.0 3.0 0.00 0.00 0.00 94 1015.0
20260906081857 71 106 0.0 5.0 0.00 0.00 0.00 94 1014.9
20260906081352 71 126 0.0 3.0 0.00 0.00 0.00 94 1014.9
20260906080848 71 82 0.0 3.0 0.00 0.00 0.00 94 1015.0
20260906080345 71 90 4.0 4.0 0.00 0.00 0.00 95 1014.9
20260906075844 71 95 2.0 3.0 0.00 0.00 0.00 94 1014.8
20260906075338 71 99 0.0 3.0 0.00 0.00 0.00 94 1014.9
20260906074834 71 114 0.0 2.0 0.00 0.00 0.00 94 1015.1
20260906074334 71 90 0.0 1.0 0.00 0.00 0.00 94 1015.3
20260906073833 72 90 0.0 2.0 0.00 0.00 0.00 94 1015.3
20260906073328 72 105 1.0 4.0 0.00 0.00 0.00 93 1015.3
20260906072824 72 102 2.0 4.0 0.00 0.00 0.00 93 1015.1
20260906072320 72 102 2.0 2.0 0.00 0.00 0.00 93 1015.1
20260906071816 72 114 0.0 3.0 0.00 0.00 0.00 93 1015.3
20260906071315 72 90 2.0 4.0 0.00 0.00 0.00 92 1015.3
20260906070812 72 75 0.0 4.0 0.00 0.00 0.00 92 1015.2
20260906070308 72 102 2.0 3.0 0.00 0.00 0.00 92 1015.2
20260906065802 73 72 4.0 4.0 0.00 0.00 0.00 91 1015.3
20260906065257 73 107 0.0 3.0 0.00 0.00 0.00 91 1015.2
20260906064753 73 102 0.0 3.0 0.00 0.00 0.00 91 1015.2
20260906064249 73 90 0.0 2.0 0.00 0.00 0.00 91 1015.3
20260906063743 73 82 1.0 3.0 0.00 0.00 0.00 90 1015.4
20260906063239 73 106 2.0 3.0 0.00 0.00 0.00 90 1015.3
20260906062734 73 63 0.0 4.0 0.00 0.00 0.00 90 1015.3
20260906062233 73 102 2.0 3.0 0.00 0.00 0.00 90 1015.4
20260906061729 74 85 2.0 3.0 0.00 0.00 0.00 89 1015.3
20260906061225 74 306 1.0 3.0 0.00 0.00 0.00 89 1015.2
20260906060720 74 123 2.0 4.0 0.00 0.00 0.00 89 1015.4
20260906060218 74 90 0.0 4.0 0.00 0.00 0.00 89 1015.4
20260906055713 74 90 0.0 2.0 0.00 0.00 0.00 89 1015.3
20260906055208 74 80 4.0 4.0 0.00 0.00 0.00 89 1015.4
20260906054703 74 84 1.0 3.0 0.00 0.00 0.00 89 1015.4
20260906054158 74 90 0.0 2.0 0.00 0.00 0.00 89 1015.1
20260906053655 74 90 0.0 2.0 0.00 0.00 0.00 89 1015.2
20260906053150 74 106 2.0 4.0 0.00 0.00 0.00 89 1015.2
20260906052645 74 90 1.0 2.0 0.00 0.00 0.00 89 1015.1
20260906052142 74 67 2.0 5.0 0.00 0.00 0.00 89 1015.0
20260906051638 74 80 4.0 5.0 0.00 0.00 0.00 89 1014.8
20260906051137 74 96 0.0 5.0 0.00 0.00 0.00 89 1014.9
20260906050633 74 119 2.0 4.0 0.00 0.00 0.00 89 1014.7
20260906050128 74 97 3.0 4.0 0.00 0.00 0.00 89 1014.7
20260906045626 74 102 0.0 4.0 0.00 0.00 0.00 89 1014.8
20260906045122 74 90 0.0 3.0 0.00 0.00 0.00 89 1014.8
20260906044618 74 90 1.0 3.0 0.00 0.00 0.00 89 1014.6
20260906044112 74 81 2.0 5.0 0.00 0.00 0.00 89 1014.8
20260906043609 74 69 0.0 3.0 0.00 0.00 0.00 88 1014.5
20260906043104 74 86 7.0 7.0 0.00 0.00 0.00 88 1014.3
20260906042603 74 93 8.0 8.0 0.00 0.00 0.00 88 1014.4
20260906042058 74 82 4.0 7.0 0.00 0.00 0.00 88 1014.5
20260906041554 74 90 3.0 6.0 0.00 0.00 0.00 88 1014.3
20260906041049 74 90 3.0 7.0 0.00 0.00 0.00 88 1014.4
20260906040544 74 94 3.0 7.0 0.00 0.00 0.00 88 1014.3
20260906040039 74 97 0.0 3.0 0.00 0.00 0.00 89 1014.4
20260906035534 74 97 1.0 3.0 0.00 0.00 0.00 89 1014.1
20260906035031 74 90 1.0 4.0 0.00 0.00 0.00 89 1014.4
20260906034530 74 83 1.0 4.0 0.00 0.00 0.00 88 1014.4
20260906034025 74 74 1.0 3.0 0.00 0.00 0.00 88 1014.3
20260906033520 74 73 2.0 3.0 0.00 0.00 0.00 88 1014.2
20260906033016 74 77 0.0 2.0 0.00 0.00 0.00 88 1014.2
20260906032512 74 95 2.0 3.0 0.00 0.00 0.00 88 1014.1
20260906032007 74 90 5.0 5.0 0.00 0.00 0.00 88 1014.1
20260906031502 74 114 3.0 5.0 0.00 0.00 0.00 88 1014.1
20260906030957 74 97 1.0 2.0 0.00 0.00 0.00 88 1014.3
20260906030451 74 117 2.0 7.0 0.00 0.00 0.00 88 1014.1
20260906025946 74 97 4.0 5.0 0.00 0.00 0.00 88 1014.2
20260906025440 74 82 1.0 4.0 0.00 0.00 0.00 88 1014.4
20260906024939 73 160 0.0 6.0 0.00 0.00 0.00 88 1014.0
20260906024438 73 106 2.0 5.0 0.00 0.00 0.00 88 1014.1
20260906023933 73 105 0.0 5.0 0.00 0.00 0.00 89 1014.1
20260906023429 73 70 2.0 7.0 0.00 0.00 0.00 88 1014.2
20260906022924 73 86 3.0 7.0 0.00 0.00 0.00 88 1014.2
20260906022419 73 79 5.0 5.0 0.00 0.00 0.00 88 1014.3
20260906021915 73 104 3.0 5.0 0.00 0.00 0.00 88 1014.2
20260906021414 73 83 0.0 4.0 0.00 0.00 0.00 88 1014.3
20260906020909 73 112 7.0 11.0 0.00 0.00 0.00 87 1014.2
20260906020403 74 90 0.0 5.0 0.00 0.00 0.00 87 1014.3
20260906015858 74 114 3.0 5.0 0.00 0.00 0.00 87 1014.2
20260906015357 74 90 4.0 7.0 0.00 0.00 0.00 87 1014.2
20260906014857 74 85 4.0 5.0 0.00 0.00 0.00 86 1014.0
20260906014357 74 243 3.0 6.0 0.00 0.00 0.00 86 1014.1
20260906013853 74 87 3.0 4.0 0.00 0.00 0.00 87 1014.1
20260906013348 74 95 2.0 4.0 0.00 0.00 0.00 87 1014.1
20260906012844 74 105 1.0 6.0 0.00 0.00 0.00 87 1014.0
20260906012339 75 90 1.0 4.0 0.00 0.00 0.00 88 1014.0
20260906011838 75 71 3.0 5.0 0.00 0.00 0.00 88 1013.8
20260906011333 75 81 0.0 3.0 0.00 0.00 0.00 88 1013.9
20260906010829 75 76 0.0 4.0 0.00 0.00 0.00 88 1013.6
20260906010325 75 84 2.0 4.0 0.00 0.00 0.00 87 1013.9
20260906005821 75 97 5.0 5.0 0.00 0.00 0.00 87 1014.1
20260906005319 75 90 2.0 8.0 0.00 0.00 0.00 86 1013.6
20260906004819 76 100 0.0 7.0 0.00 0.00 0.00 86 1013.8
20260906004318 76 81 0.0 4.0 0.00 0.00 0.00 85 1013.8
20260906003814 76 90 1.0 2.0 0.00 0.00 0.00 85 1013.5
20260906003309 77 106 0.0 5.0 0.00 0.00 0.00 84 1013.5
20260906002805 77 117 0.0 5.0 0.00 0.00 0.00 84 1013.4
20260906002306 77 90 0.0 5.0 0.00 0.00 0.00 83 1013.2
20260906001800 78 92 7.0 9.0 0.00 0.00 0.00 82 1013.2
20260906001254 78 113 2.0 3.0 0.00 0.00 0.00 82 1013.2
20260906000749 78 95 4.0 5.0 0.00 0.00 0.00 81 1013.0
20260906000244 78 114 1.0 6.0 0.00 0.00 0.00 80 1013.1
20260905235739 79 87 4.0 6.0 0.00 0.00 0.00 79 1012.9
20260905235238 80 210 0.0 7.0 0.00 0.00 0.00 78 1013.0
20260905234734 81 80 2.0 5.0 0.00 0.00 0.00 77 1012.9
20260905234229 81 122 3.0 5.0 0.00 0.00 0.00 76 1013.0
20260905233725 82 76 0.0 3.0 0.00 0.00 0.00 75 1013.1
20260905233224 82 90 3.0 5.0 0.00 0.00 0.00 75 1013.0
20260905232719 83 109 0.0 3.0 0.00 0.00 0.00 75 1013.0
20260905232215 82 101 2.0 4.0 0.00 0.00 0.00 75 1012.8
20260905231710 83 90 3.0 4.0 0.00 0.00 0.00 73 1012.9
20260905231206 83 113 2.0 5.0 0.00 0.00 0.00 74 1012.9
20260905230702 83 85 2.0 4.0 0.00 0.00 0.00 73 1012.7
20260905230159 84 86 3.0 4.0 0.00 0.00 0.00 73 1012.9
20260905225659 83 111 0.0 3.0 0.00 0.00 0.00 73 1013.0
20260905225154 82 172 1.0 4.0 0.00 0.00 0.00 75 1012.8
20260905224654 84 84 2.0 5.0 0.00 0.00 0.00 74 1012.5
20260905224148 83 80 4.0 4.0 0.00 0.00 0.00 74 1012.4
20260905223645 83 97 3.0 3.0 0.00 0.00 0.00 74 1012.4
20260905223142 83 35 1.0 3.0 0.00 0.00 0.00 75 1012.6
20260905222637 83 95 2.0 7.0 0.00 0.00 0.00 74 1012.7
20260905222131 84 81 0.0 8.0 0.00 0.00 0.00 73 1012.6
20260905221627 84 103 0.0 8.0 0.00 0.00 0.00 73 1012.4
20260905221124 84 90 2.0 7.0 0.00 0.00 0.00 74 1012.6
20260905220619 84 257 0.0 7.0 0.00 0.00 0.00 75 1012.7
20260905220115 84 71 4.0 6.0 0.00 0.00 0.00 74 1012.7
20260905215614 84 110 2.0 4.0 0.00 0.00 0.00 75 1012.7
20260905215110 83 117 3.0 5.0 0.00 0.00 0.00 74 1012.4
20260905214606 85 73 2.0 4.0 0.00 0.00 0.00 73 1012.3
20260905214106 85 76 3.0 5.0 0.00 0.00 0.00 73 1012.5
20260905213601 86 77 2.0 4.0 0.00 0.00 0.00 72 1012.3
20260905213056 85 101 3.0 8.0 0.00 0.00 0.00 72 1012.2
20260905212551 86 82 5.0 5.0 0.00 0.00 0.00 71 1012.3
20260905212051 86 104 3.0 4.0 0.00 0.00 0.00 72 1012.5
20260905211546 86 125 0.0 7.0 0.00 0.00 0.00 72 1012.4
20260905211042 86 106 3.0 6.0 0.00 0.00 0.00 72 1012.3
20260905210537 87 101 2.0 6.0 0.00 0.00 0.00 72 1012.4
20260905210032 86 80 2.0 5.0 0.00 0.00 0.00 72 1012.2
20260905205531 87 60 3.0 4.0 0.00 0.00 0.00 72 1012.3
20260905205030 86 90 1.0 5.0 0.00 0.00 0.00 73 1012.2
20260905204526 87 294 1.0 3.0 0.00 0.00 0.00 73 1012.4
20260905204021 87 74 3.0 5.0 0.00 0.00 0.00 72 1012.1
20260905203521 86 86 3.0 4.0 0.00 0.00 0.00 73 1012.2
20260905203016 86 81 0.0 4.0 0.00 0.00 0.00 73 1012.1
20260905202511 87 90 2.0 6.0 0.00 0.00 0.00 72 1012.4
20260905202007 88 111 0.0 6.0 0.00 0.00 0.00 71 1012.3
20260905201502 87 90 0.0 3.0 0.00 0.00 0.00 71 1012.2
20260905201001 88 94 3.0 5.0 0.00 0.00 0.00 71 1012.3
20260905200457 89 81 2.0 4.0 0.00 0.00 0.00 69 1012.4
20260905195955 88 81 0.0 4.0 0.00 0.00 0.00 70 1012.1
20260905195451 88 107 3.0 4.0 0.00 0.00 0.00 71 1012.2
20260905194946 88 90 0.0 3.0 0.00 0.00 0.00 72 1012.2
20260905194446 87 84 2.0 4.0 0.00 0.00 0.00 72 1012.0
20260905193940 88 90 2.0 3.0 0.00 0.00 0.00 73 1012.2
20260905193435 87 81 2.0 3.0 0.00 0.00 0.00 73 1012.3
20260905192930 88 90 3.0 5.0 0.00 0.00 0.00 71 1012.4
20260905192425 87 106 2.0 4.0 0.00 0.00 0.00 73 1012.1
20260905191920 88 67 2.0 6.0 0.00 0.00 0.00 72 1012.4
20260905191419 88 90 1.0 5.0 0.00 0.00 0.00 71 1012.3
20260905190914 88 85 2.0 3.0 0.00 0.00 0.00 72 1012.4
20260905190412 89 121 0.0 7.0 0.00 0.00 0.00 69 1012.2